Time,TemperatureF,DewpointF,PressureIn,WindDirection,WindDirectionDegrees,WindSpeedMPH,WindSpeedGustMPH,Humidity,HourlyPrecipIn,Conditions,Clouds,dailyrainin,SoftwareType,DateUTC
2013-06-20 00:02:00,76.1,19.0,29.93,West,270,4.0,5.1,12,0.00,,,0.00,WUHU216HW,2013-06-20 07:02:00,
2013-06-20 00:07:00,76.0,18.8,29.93,WNW,293,3.6,4.7,12,0.00,,,0.00,WUHU216HW,2013-06-20 07:07:00,
2013-06-20 00:12:00,76.0,18.8,29.92,West,270,4.0,5.6,12,0.00,,,0.00,WUHU216HW,2013-06-20 07:12:00,
2013-06-20 00:17:00,75.8,18.7,29.93,West,270,4.7,5.6,12,0.00,,,0.00,WUHU216HW,2013-06-20 07:17:00,
2013-06-20 00:22:00,75.6,18.5,29.93,West,270,4.0,5.6,12,0.00,,,0.00,WUHU216HW,2013-06-20 07:22:00,
2013-06-20 00:27:00,75.6,18.5,29.93,SW,225,2.5,5.6,12,0.00,,,0.00,WUHU216HW,2013-06-20 07:27:00,
2013-06-20 00:32:00,75.6,20.2,29.92,WNW,293,5.4,5.6,13,0.00,,,0.00,WUHU216HW,2013-06-20 07:32:00,
2013-06-20 00:37:00,75.6,20.2,29.92,WNW,293,3.1,5.8,13,0.00,,,0.00,WUHU216HW,2013-06-20 07:37:00,
2013-06-20 00:42:00,75.2,19.9,29.92,WNW,293,2.0,5.8,13,0.00,,,0.00,WUHU216HW,2013-06-20 07:42:00,
2013-06-20 00:47:00,75.2,19.9,29.92,WSW,248,3.8,6.0,13,0.00,,,0.00,WUHU216HW,2013-06-20 07:47:00,
2013-06-20 00:53:00,74.9,19.6,29.93,West,270,2.7,4.5,13,0.00,,,0.00,WUHU216HW,2013-06-20 07:53:00,
2013-06-20 00:58:00,74.5,19.4,29.93,WNW,293,1.8,4.0,13,0.00,,,0.00,WUHU216HW,2013-06-20 07:58:00,
2013-06-20 01:04:00,74.3,22.5,29.93,WNW,293,4.5,4.5,15,0.00,,,0.00,WUHU216HW,2013-06-20 08:04:00,
2013-06-20 01:09:00,74.5,22.7,29.93,SW,225,2.0,6.0,15,0.00,,,0.00,WUHU216HW,2013-06-20 08:09:00,
2013-06-20 01:14:00,74.7,22.9,29.93,West,270,2.0,6.0,15,0.00,,,0.00,WUHU216HW,2013-06-20 08:14:00,
2013-06-20 01:19:00,74.7,22.9,29.93,West,270,3.1,4.7,15,0.00,,,0.00,WUHU216HW,2013-06-20 08:19:00,
2013-06-20 01:24:00,74.5,22.7,29.92,WSW,248,2.9,4.3,15,0.00,,,0.00,WUHU216HW,2013-06-20 08:24:00,
2013-06-20 01:29:00,74.2,22.4,29.92,West,270,2.5,4.3,15,0.00,,,0.00,WUHU216HW,2013-06-20 08:29:00,
2013-06-20 01:34:00,74.0,24.0,29.92,West,270,2.2,4.3,16,0.00,,,0.00,WUHU216HW,2013-06-20 08:34:00,
2013-06-20 01:39:00,73.8,23.8,29.92,WSW,248,4.0,4.0,16,0.00,,,0.00,WUHU216HW,2013-06-20 08:39:00,
2013-06-20 01:44:00,73.8,23.8,29.92,WSW,248,4.5,4.5,16,0.00,,,0.00,WUHU216HW,2013-06-20 08:44:00,
2013-06-20 01:49:00,74.0,25.6,29.92,WSW,248,3.1,5.4,17,0.00,,,0.00,WUHU216HW,2013-06-20 08:49:00,
2013-06-20 01:54:00,74.2,25.8,29.92,SSW,203,4.0,5.4,17,0.00,,,0.00,WUHU216HW,2013-06-20 08:54:00,
2013-06-20 01:59:00,74.2,25.8,29.92,West,270,3.4,5.8,17,0.00,,,0.00,WUHU216HW,2013-06-20 08:59:00,
2013-06-20 02:04:00,74.2,25.8,29.92,WSW,248,4.0,5.8,17,0.00,,,0.00,WUHU216HW,2013-06-20 09:04:00,
2013-06-20 02:09:00,74.2,25.8,29.92,SW,225,2.5,5.4,17,0.00,,,0.00,WUHU216HW,2013-06-20 09:09:00,
2013-06-20 02:14:00,74.2,25.8,29.92,SW,225,4.7,5.4,17,0.00,,,0.00,WUHU216HW,2013-06-20 09:14:00,
2013-06-20 02:20:00,74.3,25.8,29.91,West,270,4.9,5.4,17,0.00,,,0.00,WUHU216HW,2013-06-20 09:20:00,
2013-06-20 02:25:00,74.3,24.2,29.92,West,270,3.4,5.4,16,0.00,,,0.00,WUHU216HW,2013-06-20 09:25:00,
2013-06-20 02:30:00,74.0,25.6,29.92,WSW,248,2.2,4.9,17,0.00,,,0.00,WUHU216HW,2013-06-20 09:30:00,
2013-06-20 02:35:00,73.8,25.4,29.92,West,270,2.5,4.7,17,0.00,,,0.00,WUHU216HW,2013-06-20 09:35:00,
2013-06-20 02:40:00,73.8,25.4,29.92,SW,225,2.9,4.7,17,0.00,,,0.00,WUHU216HW,2013-06-20 09:40:00,
2013-06-20 02:45:00,73.8,25.4,29.92,West,270,2.5,4.7,17,0.00,,,0.00,WUHU216HW,2013-06-20 09:45:00,
2013-06-20 02:49:00,73.4,25.1,29.92,WNW,293,2.2,4.3,17,0.00,,,0.00,WUHU216HW,2013-06-20 09:49:00,
2013-06-20 02:54:00,73.3,25.0,29.92,WSW,248,2.5,3.8,17,0.00,,,0.00,WUHU216HW,2013-06-20 09:54:00,
2013-06-20 03:00:00,73.1,24.9,29.92,WNW,293,1.8,3.8,17,0.00,,,0.00,WUHU216HW,2013-06-20 10:00:00,
2013-06-20 03:05:00,72.7,24.5,29.92,SW,225,1.8,4.0,17,0.00,,,0.00,WUHU216HW,2013-06-20 10:05:00,
2013-06-20 03:10:00,72.7,24.5,29.93,West,270,1.3,4.0,17,0.00,,,0.00,WUHU216HW,2013-06-20 10:10:00,
2013-06-20 03:15:00,72.4,24.2,29.92,SSE,158,1.1,2.7,17,0.00,,,0.00,WUHU216HW,2013-06-20 10:15:00,
2013-06-20 03:20:00,72.4,25.8,29.93,West,270,1.3,3.4,18,0.00,,,0.00,WUHU216HW,2013-06-20 10:20:00,
2013-06-20 03:25:00,72.4,25.8,29.93,WSW,248,0.4,3.4,18,0.00,,,0.00,WUHU216HW,2013-06-20 10:25:00,
2013-06-20 03:30:00,72.2,24.0,29.93,WSW,248,1.6,2.7,17,0.00,,,0.00,WUHU216HW,2013-06-20 10:30:00,
2013-06-20 03:35:00,72.0,23.9,29.93,WSW,248,1.1,2.5,17,0.00,,,0.00,WUHU216HW,2013-06-20 10:35:00,
2013-06-20 03:40:00,72.0,23.9,29.93,SW,225,0.9,2.5,17,0.00,,,0.00,WUHU216HW,2013-06-20 10:40:00,
2013-06-20 03:45:00,71.8,25.4,29.93,WSW,248,0.4,2.5,18,0.00,,,0.00,WUHU216HW,2013-06-20 10:45:00,
2013-06-20 03:50:00,71.5,25.0,29.93,WNW,293,0.4,1.1,18,0.00,,,0.00,WUHU216HW,2013-06-20 10:50:00,
2013-06-20 03:55:00,70.9,24.7,29.93,SE,135,0.2,1.1,18,0.00,,,0.00,WUHU216HW,2013-06-20 10:55:00,
2013-06-20 04:00:00,70.6,24.3,29.94,SE,135,0.0,1.1,18,0.00,,,0.00,WUHU216HW,2013-06-20 11:00:00,
2013-06-20 04:05:00,69.8,25.4,29.94,ESE,113,0.2,0.4,19,0.00,,,0.00,WUHU216HW,2013-06-20 11:05:00,
2013-06-20 04:10:00,69.5,25.1,29.94,East,90,0.0,2.0,19,0.00,,,0.00,WUHU216HW,2013-06-20 11:10:00,
2013-06-20 04:15:00,69.1,24.9,29.94,East,90,0.0,2.0,19,0.00,,,0.00,WUHU216HW,2013-06-20 11:15:00,
2013-06-20 04:20:00,68.8,26.1,29.94,East,90,0.0,0.7,20,0.00,,,0.00,WUHU216HW,2013-06-20 11:20:00,
2013-06-20 04:25:00,68.2,26.7,29.94,NNW,338,0.0,0.4,21,0.00,,,0.00,WUHU216HW,2013-06-20 11:25:00,
2013-06-20 04:30:00,67.7,26.2,29.94,NNW,338,0.0,0.4,21,0.00,,,0.00,WUHU216HW,2013-06-20 11:30:00,
2013-06-20 04:35:00,67.3,25.9,29.94,North,0,0.0,0.7,21,0.00,,,0.00,WUHU216HW,2013-06-20 11:35:00,
2013-06-20 04:40:00,67.1,26.7,29.93,ESE,113,0.0,0.7,22,0.00,,,0.00,WUHU216HW,2013-06-20 11:40:00,
2013-06-20 04:45:00,67.1,26.7,29.94,NNE,23,0.0,1.6,22,0.00,,,0.00,WUHU216HW,2013-06-20 11:45:00,
2013-06-20 04:50:00,67.0,26.6,29.94,SSW,203,1.3,1.6,22,0.00,,,0.00,WUHU216HW,2013-06-20 11:50:00,
2013-06-20 04:55:00,67.5,27.1,29.94,NNW,338,1.1,3.6,22,0.00,,,0.00,WUHU216HW,2013-06-20 11:55:00,
2013-06-20 05:00:00,68.4,26.8,29.94,SW,225,0.4,3.6,21,0.00,,,0.00,WUHU216HW,2013-06-20 12:00:00,
2013-06-20 05:05:00,68.9,27.3,29.94,West,270,1.1,2.9,21,0.00,,,0.00,WUHU216HW,2013-06-20 12:05:00,
2013-06-20 05:10:00,69.7,25.2,29.94,NNW,338,1.3,4.3,19,0.00,,,0.00,WUHU216HW,2013-06-20 12:10:00,
2013-06-20 05:16:00,70.4,25.8,29.94,SSW,203,1.1,4.3,19,0.00,,,0.00,WUHU216HW,2013-06-20 12:16:00,
2013-06-20 05:21:00,70.4,25.8,29.94,SSE,158,0.7,1.6,19,0.00,,,0.00,WUHU216HW,2013-06-20 12:21:00,
2013-06-20 05:26:00,69.8,25.4,29.94,West,270,0.2,1.8,19,0.00,,,0.00,WUHU216HW,2013-06-20 12:26:00,
2013-06-20 05:31:00,69.5,25.1,29.95,SE,135,0.4,1.8,19,0.00,,,0.00,WUHU216HW,2013-06-20 12:31:00,
2013-06-20 05:36:00,68.8,24.6,29.95,SE,135,0.0,0.9,19,0.00,,,0.00,WUHU216HW,2013-06-20 12:36:00,
2013-06-20 05:41:00,68.4,26.8,29.95,North,0,0.0,0.4,21,0.00,,,0.00,WUHU216HW,2013-06-20 12:41:00,
2013-06-20 05:46:00,68.0,26.6,29.95,ESE,113,0.4,1.1,21,0.00,,,0.00,WUHU216HW,2013-06-20 12:46:00,
2013-06-20 05:51:00,67.7,26.2,29.95,ESE,113,0.0,1.1,21,0.00,,,0.00,WUHU216HW,2013-06-20 12:51:00,
2013-06-20 05:56:00,67.5,26.1,29.95,NNE,23,0.0,0.4,21,0.00,,,0.00,WUHU216HW,2013-06-20 12:56:00,
2013-06-20 06:01:00,67.5,27.1,29.95,ESE,113,0.0,0.4,22,0.00,,,0.00,WUHU216HW,2013-06-20 13:01:00,
2013-06-20 06:06:00,67.7,28.3,29.96,NNW,338,0.0,0.4,23,0.00,,,0.00,WUHU216HW,2013-06-20 13:06:00,
2013-06-20 06:11:00,67.9,27.4,29.96,West,270,0.0,1.6,22,0.00,,,0.00,WUHU216HW,2013-06-20 13:11:00,
2013-06-20 06:16:00,68.4,26.8,29.96,SE,135,0.7,2.9,21,0.00,,,0.00,WUHU216HW,2013-06-20 13:16:00,
2013-06-20 06:21:00,69.1,26.5,29.96,ENE,68,0.0,2.9,20,0.00,,,0.00,WUHU216HW,2013-06-20 13:21:00,
2013-06-20 06:26:00,69.7,26.8,29.96,SE,135,1.1,1.8,20,0.00,,,0.00,WUHU216HW,2013-06-20 13:26:00,
2013-06-20 06:31:00,70.2,25.7,29.96,ESE,113,0.0,1.8,19,0.00,,,0.00,WUHU216HW,2013-06-20 13:31:00,
2013-06-20 06:36:00,70.6,25.9,29.97,SSW,203,1.1,1.8,19,0.00,,,0.00,WUHU216HW,2013-06-20 13:36:00,
2013-06-20 06:41:00,70.9,26.3,29.96,SW,225,1.1,4.5,19,0.00,,,0.00,WUHU216HW,2013-06-20 13:41:00,
2013-06-20 06:46:00,71.6,26.8,29.96,WSW,248,3.6,4.5,19,0.00,,,0.00,WUHU216HW,2013-06-20 13:46:00,
2013-06-20 06:51:00,72.4,25.8,29.96,SE,135,2.2,4.5,18,0.00,,,0.00,WUHU216HW,2013-06-20 13:51:00,
2013-06-20 06:56:00,72.7,26.2,29.96,SSE,158,1.1,4.5,18,0.00,,,0.00,WUHU216HW,2013-06-20 13:56:00,
2013-06-20 07:01:00,73.3,26.7,29.97,WSW,248,1.3,5.4,18,0.00,,,0.00,WUHU216HW,2013-06-20 14:01:00,
2013-06-20 07:06:00,73.8,25.4,29.96,NW,315,4.0,5.4,17,0.00,,,0.00,WUHU216HW,2013-06-20 14:06:00,
2013-06-20 07:11:00,74.3,25.8,29.97,SSE,158,0.9,6.7,17,0.00,,,0.00,WUHU216HW,2013-06-20 14:11:00,
2013-06-20 07:16:00,74.7,24.5,29.96,West,270,2.5,6.7,16,0.00,,,0.00,WUHU216HW,2013-06-20 14:16:00,
2013-06-20 07:21:00,75.2,24.8,29.97,WSW,248,1.8,6.3,16,0.00,,,0.00,WUHU216HW,2013-06-20 14:21:00,
2013-06-20 07:26:00,75.6,25.2,29.97,West,270,2.0,5.6,16,0.00,,,0.00,WUHU216HW,2013-06-20 14:26:00,
2013-06-20 07:31:00,76.0,25.5,29.97,SE,135,3.4,5.4,16,0.00,,,0.00,WUHU216HW,2013-06-20 14:31:00,
2013-06-20 07:36:00,76.3,24.1,29.97,SSE,158,4.7,5.4,15,0.00,,,0.00,WUHU216HW,2013-06-20 14:36:00,
2013-06-20 07:41:00,76.9,26.2,29.97,ESE,113,2.9,5.1,16,0.00,,,0.00,WUHU216HW,2013-06-20 14:41:00,
2013-06-20 07:46:00,77.2,24.8,29.97,SW,225,2.0,4.7,15,0.00,,,0.00,WUHU216HW,2013-06-20 14:46:00,
2013-06-20 07:51:00,77.4,24.9,29.97,SE,135,4.7,4.7,15,0.00,,,0.00,WUHU216HW,2013-06-20 14:51:00,
2013-06-20 07:56:00,77.8,21.9,29.97,SSE,158,4.7,4.7,13,0.00,,,0.00,WUHU216HW,2013-06-20 14:56:00,
2013-06-20 08:01:00,78.1,22.2,29.97,SSW,203,1.6,6.9,13,0.00,,,0.00,WUHU216HW,2013-06-20 15:01:00,
2013-06-20 08:06:00,78.3,22.2,29.97,SE,135,3.4,6.9,13,0.00,,,0.00,WUHU216HW,2013-06-20 15:06:00,
2013-06-20 08:11:00,78.8,21.0,29.97,SSE,158,1.8,4.9,12,0.00,,,0.00,WUHU216HW,2013-06-20 15:11:00,
2013-06-20 08:16:00,79.2,19.6,29.97,SSW,203,3.1,5.1,11,0.00,,,0.00,WUHU216HW,2013-06-20 15:16:00,
2013-06-20 08:21:00,79.6,21.6,29.97,SE,135,1.1,5.1,12,0.00,,,0.00,WUHU216HW,2013-06-20 15:21:00,
2013-06-20 08:26:00,79.9,20.2,29.97,SE,135,4.3,4.7,11,0.00,,,0.00,WUHU216HW,2013-06-20 15:26:00,
2013-06-20 08:31:00,80.1,20.4,29.97,ESE,113,1.8,5.1,11,0.00,,,0.00,WUHU216HW,2013-06-20 15:31:00,
2013-06-20 08:36:00,80.3,20.5,29.97,SE,135,3.8,5.1,11,0.00,,,0.00,WUHU216HW,2013-06-20 15:36:00,
2013-06-20 08:42:00,80.5,20.6,29.96,SE,135,1.8,5.1,11,0.00,,,0.00,WUHU216HW,2013-06-20 15:42:00,
2013-06-20 08:47:00,80.8,19.3,29.97,SSE,158,3.6,5.6,10,0.00,,,0.00,WUHU216HW,2013-06-20 15:47:00,
2013-06-20 08:52:00,81.0,21.1,29.96,ESE,113,1.8,5.6,11,0.00,,,0.00,WUHU216HW,2013-06-20 15:52:00,
2013-06-20 08:57:00,81.2,19.5,29.96,SE,135,1.3,4.9,10,0.00,,,0.00,WUHU216HW,2013-06-20 15:57:00,
2013-06-20 09:02:00,81.5,19.8,29.96,WSW,248,4.7,5.6,8,0.00,,,0.00,WUHU216HW,2013-06-20 16:02:00,
2013-06-20 09:07:00,82.1,20.3,29.96,WSW,248,6.3,6.9,7,0.00,,,0.00,WUHU216HW,2013-06-20 16:07:00,
2013-06-20 09:12:00,82.6,20.6,29.96,West,270,3.4,7.2,8,0.00,,,0.00,WUHU216HW,2013-06-20 16:12:00,
2013-06-20 09:17:00,83.2,21.1,29.96,SW,225,4.5,7.2,8,0.00,,,0.00,WUHU216HW,2013-06-20 16:17:00,
2013-06-20 09:22:00,83.5,21.2,29.96,SW,225,5.4,6.7,8,0.00,,,0.00,WUHU216HW,2013-06-20 16:22:00,
2013-06-20 09:27:00,83.9,21.5,29.96,SE,135,2.9,6.7,8,0.00,,,0.00,WUHU216HW,2013-06-20 16:27:00,
2013-06-20 09:32:00,83.9,21.5,29.96,SW,225,6.5,6.7,8,0.00,,,0.00,WUHU216HW,2013-06-20 16:32:00,
2013-06-20 09:37:00,83.9,21.5,29.96,SSE,158,3.6,6.9,8,0.00,,,0.00,WUHU216HW,2013-06-20 16:37:00,
2013-06-20 09:42:00,84.1,21.7,29.96,SW,225,6.0,6.9,8,0.00,,,0.00,WUHU216HW,2013-06-20 16:42:00,
2013-06-20 09:47:00,84.4,22.0,29.96,East,90,3.4,6.7,8,0.00,,,0.00,WUHU216HW,2013-06-20 16:47:00,
2013-06-20 09:52:00,84.6,22.1,29.96,West,270,5.1,7.4,8,0.00,,,0.00,WUHU216HW,2013-06-20 16:52:00,
2013-06-20 09:57:00,85.1,22.5,29.96,SE,135,2.5,7.4,6,0.00,,,0.00,WUHU216HW,2013-06-20 16:57:00,
2013-06-20 10:02:00,85.3,22.7,29.96,WSW,248,3.6,7.2,7,0.00,,,0.00,WUHU216HW,2013-06-20 17:02:00,
2013-06-20 10:07:00,85.7,23.0,29.96,SSW,203,2.0,6.9,6,0.00,,,0.00,WUHU216HW,2013-06-20 17:07:00,
2013-06-20 10:12:00,86.0,23.2,29.96,SSW,203,7.4,7.4,5,0.00,,,0.00,WUHU216HW,2013-06-20 17:12:00,
2013-06-20 10:17:00,86.4,23.5,29.96,NNW,338,5.4,7.4,5,0.00,,,0.00,WUHU216HW,2013-06-20 17:17:00,
2013-06-20 10:22:00,86.8,23.8,29.96,WNW,293,4.7,8.3,6,0.00,,,0.00,WUHU216HW,2013-06-20 17:22:00,
2013-06-20 10:27:00,86.8,23.8,29.96,SW,225,1.8,8.5,6,0.00,,,0.00,WUHU216HW,2013-06-20 17:27:00,
2013-06-20 10:32:00,86.9,23.9,29.96,SW,225,5.1,8.5,6,0.00,,,0.00,WUHU216HW,2013-06-20 17:32:00,
2013-06-20 10:37:00,87.1,24.1,29.96,WSW,248,6.0,7.6,6,0.00,,,0.00,WUHU216HW,2013-06-20 17:37:00,
2013-06-20 10:42:00,87.1,24.1,29.96,WSW,248,6.5,7.6,7,0.00,,,0.00,WUHU216HW,2013-06-20 17:42:00,
2013-06-20 10:47:00,87.3,24.2,29.96,WSW,248,7.6,8.3,7,0.00,,,0.00,WUHU216HW,2013-06-20 17:47:00,
2013-06-20 10:52:00,87.3,24.2,29.96,West,270,7.6,8.3,7,0.00,,,0.00,WUHU216HW,2013-06-20 17:52:00,
2013-06-20 10:57:00,87.1,24.1,29.96,SSW,203,4.0,8.5,7,0.00,,,0.00,WUHU216HW,2013-06-20 17:57:00,
2013-06-20 11:02:00,87.5,24.4,29.96,WSW,248,4.7,8.5,6,0.00,,,0.00,WUHU216HW,2013-06-20 18:02:00,
2013-06-20 11:07:00,87.8,24.7,29.96,SSW,203,3.4,8.5,6,0.00,,,0.00,WUHU216HW,2013-06-20 18:07:00,
2013-06-20 11:12:00,88.2,24.9,29.96,SW,225,2.0,8.5,7,0.00,,,0.00,WUHU216HW,2013-06-20 18:12:00,
2013-06-20 11:17:00,88.4,25.0,29.96,SW,225,4.0,6.9,6,0.00,,,0.00,WUHU216HW,2013-06-20 18:17:00,
2013-06-20 11:22:00,88.9,25.4,29.96,WSW,248,4.0,9.8,6,0.00,,,0.00,WUHU216HW,2013-06-20 18:22:00,
2013-06-20 11:27:00,89.3,25.7,29.96,SSW,203,1.6,9.8,6,0.00,,,0.00,WUHU216HW,2013-06-20 18:27:00,
2013-06-20 11:32:00,89.6,25.9,29.96,NW,315,4.3,10.5,6,0.00,,,0.00,WUHU216HW,2013-06-20 18:32:00,
2013-06-20 11:37:00,89.6,25.9,29.96,SW,225,4.3,12.5,5,0.00,,,0.00,WUHU216HW,2013-06-20 18:37:00,
2013-06-20 11:42:00,89.6,25.9,29.95,SW,225,5.6,12.5,5,0.00,,,0.00,WUHU216HW,2013-06-20 18:42:00,
2013-06-20 11:47:00,90.0,26.2,29.95,WNW,293,4.0,9.2,5,0.00,,,0.00,WUHU216HW,2013-06-20 18:47:00,
2013-06-20 11:52:00,90.2,26.4,29.95,West,270,6.5,10.5,5,0.00,,,0.00,WUHU216HW,2013-06-20 18:52:00,
2013-06-20 11:57:00,90.4,26.5,29.95,SW,225,3.4,10.5,5,0.00,,,0.00,WUHU216HW,2013-06-20 18:57:00,
2013-06-20 12:02:00,91.1,27.1,29.95,West,270,5.8,9.8,5,0.00,,,0.00,WUHU216HW,2013-06-20 19:02:00,
2013-06-20 12:08:00,91.1,27.1,29.95,SSE,158,6.3,9.6,5,0.00,,,0.00,WUHU216HW,2013-06-20 19:08:00,
2013-06-20 12:13:00,91.1,27.1,29.95,ENE,68,4.9,9.4,6,0.00,,,0.00,WUHU216HW,2013-06-20 19:13:00,
2013-06-20 12:18:00,90.9,26.9,29.95,SW,225,9.2,9.8,6,0.00,,,0.00,WUHU216HW,2013-06-20 19:18:00,
2013-06-20 12:23:00,90.9,26.9,29.95,NNW,338,5.4,11.0,6,0.00,,,0.00,WUHU216HW,2013-06-20 19:23:00,
2013-06-20 12:28:00,91.3,27.2,29.95,NW,315,5.4,11.0,6,0.00,,,0.00,WUHU216HW,2013-06-20 19:28:00,
2013-06-20 12:33:00,91.1,27.1,29.94,WSW,248,3.6,10.5,6,0.00,,,0.00,WUHU216HW,2013-06-20 19:33:00,
2013-06-20 12:38:00,91.4,27.4,29.95,SW,225,6.9,10.1,6,0.00,,,0.00,WUHU216HW,2013-06-20 19:38:00,
2013-06-20 12:43:00,91.6,27.5,29.94,SSE,158,7.6,10.1,6,0.00,,,0.00,WUHU216HW,2013-06-20 19:43:00,
2013-06-20 12:48:00,91.4,27.4,29.94,ESE,113,4.0,9.8,6,0.00,,,0.00,WUHU216HW,2013-06-20 19:48:00,
2013-06-20 12:53:00,91.4,27.4,29.94,SW,225,4.7,9.8,7,0.00,,,0.00,WUHU216HW,2013-06-20 19:53:00,
2013-06-20 12:58:00,91.8,27.6,29.94,SW,225,5.4,8.5,7,0.00,,,0.00,WUHU216HW,2013-06-20 19:58:00,
2013-06-20 13:03:00,92.5,28.1,29.94,SW,225,5.6,8.5,6,0.00,,,0.00,WUHU216HW,2013-06-20 20:03:00,
2013-06-20 13:08:00,93.1,28.5,29.94,WSW,248,4.0,6.9,7,0.00,,,0.00,WUHU216HW,2013-06-20 20:08:00,
2013-06-20 13:13:00,93.2,28.6,29.94,WSW,248,3.8,7.8,6,0.00,,,0.00,WUHU216HW,2013-06-20 20:13:00,
2013-06-20 13:18:00,93.6,28.9,29.93,WSW,248,6.9,8.1,7,0.00,,,0.00,WUHU216HW,2013-06-20 20:18:00,
2013-06-20 13:23:00,94.0,29.2,29.93,West,270,5.4,10.3,6,0.00,,,0.00,WUHU216HW,2013-06-20 20:23:00,
2013-06-20 13:28:00,94.0,29.2,29.94,WSW,248,6.7,11.0,6,0.00,,,0.00,WUHU216HW,2013-06-20 20:28:00,
2013-06-20 13:33:00,93.6,28.9,29.93,SW,225,4.7,11.0,6,0.00,,,0.00,WUHU216HW,2013-06-20 20:33:00,
2013-06-20 13:38:00,93.2,28.6,29.93,SW,225,4.0,10.5,6,0.00,,,0.00,WUHU216HW,2013-06-20 20:38:00,
2013-06-20 13:43:00,93.1,28.5,29.93,WSW,248,6.5,12.3,6,0.00,,,0.00,WUHU216HW,2013-06-20 20:43:00,
2013-06-20 13:48:00,93.2,28.6,29.93,WNW,293,5.4,12.3,6,0.00,,,0.00,WUHU216HW,2013-06-20 20:48:00,
2013-06-20 13:53:00,93.6,28.9,29.93,WSW,248,6.9,9.2,6,0.00,,,0.00,WUHU216HW,2013-06-20 20:53:00,
2013-06-20 13:59:00,93.2,28.6,29.93,WSW,248,4.3,11.4,5,0.00,,,0.00,WUHU216HW,2013-06-20 20:59:00,
2013-06-20 14:04:00,93.2,28.6,29.93,SW,225,5.1,11.4,6,0.00,,,0.00,WUHU216HW,2013-06-20 21:04:00,
2013-06-20 14:09:00,93.2,28.6,29.93,West,270,9.6,9.6,5,0.00,,,0.00,WUHU216HW,2013-06-20 21:09:00,
2013-06-20 14:14:00,93.4,28.8,29.92,WSW,248,4.7,9.6,6,0.00,,,0.00,WUHU216HW,2013-06-20 21:14:00,
2013-06-20 14:19:00,93.8,29.1,29.92,WSW,248,6.0,12.8,5,0.00,,,0.00,WUHU216HW,2013-06-20 21:19:00,
2013-06-20 14:24:00,93.8,29.1,29.92,SW,225,5.4,12.8,5,0.00,,,0.00,WUHU216HW,2013-06-20 21:24:00,
2013-06-20 14:29:00,94.0,29.2,29.92,SW,225,2.2,10.3,5,0.00,,,0.00,WUHU216HW,2013-06-20 21:29:00,
2013-06-20 14:34:00,94.0,29.2,29.92,South,180,7.2,8.9,5,0.00,,,0.00,WUHU216HW,2013-06-20 21:34:00,
2013-06-20 14:39:00,94.0,29.2,29.92,West,270,2.9,8.9,5,0.00,,,0.00,WUHU216HW,2013-06-20 21:39:00,
2013-06-20 14:45:00,94.0,29.2,29.91,ESE,113,7.2,9.2,6,0.00,,,0.00,WUHU216HW,2013-06-20 21:45:00,
2013-06-20 14:50:00,93.8,29.1,29.91,South,180,4.7,11.4,6,0.00,,,0.00,WUHU216HW,2013-06-20 21:50:00,
2013-06-20 14:55:00,94.0,29.2,29.91,SW,225,2.5,11.4,6,0.00,,,0.00,WUHU216HW,2013-06-20 21:55:00,
2013-06-20 15:00:00,94.3,29.5,29.91,SW,225,4.7,9.2,6,0.00,,,0.00,WUHU216HW,2013-06-20 22:00:00,
2013-06-20 15:05:00,94.3,29.5,29.91,WSW,248,5.1,9.2,6,0.00,,,0.00,WUHU216HW,2013-06-20 22:05:00,
2013-06-20 15:10:00,94.3,29.5,29.91,SSW,203,10.3,11.2,6,0.00,,,0.00,WUHU216HW,2013-06-20 22:10:00,
2013-06-20 15:15:00,94.0,29.2,29.91,SW,225,8.9,12.1,7,0.00,,,0.00,WUHU216HW,2013-06-20 22:15:00,
2013-06-20 15:20:00,94.0,29.2,29.91,SW,225,7.2,12.1,7,0.00,,,0.00,WUHU216HW,2013-06-20 22:20:00,
2013-06-20 15:26:00,94.1,29.3,29.91,NNW,338,4.9,11.0,7,0.00,,,0.00,WUHU216HW,2013-06-20 22:26:00,
2013-06-20 15:31:00,94.3,29.5,29.91,West,270,7.4,9.2,7,0.00,,,0.00,WUHU216HW,2013-06-20 22:31:00,
2013-06-20 15:36:00,94.3,29.5,29.91,South,180,7.4,11.4,7,0.00,,,0.00,WUHU216HW,2013-06-20 22:36:00,
2013-06-20 15:41:00,94.5,29.6,29.91,WSW,248,6.0,11.4,7,0.00,,,0.00,WUHU216HW,2013-06-20 22:41:00,
2013-06-20 15:46:00,94.7,29.8,29.91,SE,135,6.7,7.6,7,0.00,,,0.00,WUHU216HW,2013-06-20 22:46:00,
2013-06-20 15:51:00,95.8,30.6,29.91,NW,315,6.0,7.6,7,0.00,,,0.00,WUHU216HW,2013-06-20 22:51:00,
2013-06-20 15:56:00,95.4,30.3,29.91,WNW,293,6.3,8.9,7,0.00,,,0.00,WUHU216HW,2013-06-20 22:56:00,
2013-06-20 16:01:00,94.5,29.6,29.91,WNW,293,7.6,12.1,8,0.00,,,0.00,WUHU216HW,2013-06-20 23:01:00,
2013-06-20 16:06:00,94.0,29.2,29.91,NW,315,4.3,12.1,8,0.00,,,0.00,WUHU216HW,2013-06-20 23:06:00,
2013-06-20 16:11:00,94.0,29.2,29.90,South,180,1.8,9.8,8,0.00,,,0.00,WUHU216HW,2013-06-20 23:11:00,
2013-06-20 16:16:00,94.1,29.3,29.91,SSW,203,7.2,8.7,8,0.00,,,0.00,WUHU216HW,2013-06-20 23:16:00,
2013-06-20 16:21:00,94.1,29.3,29.90,West,270,7.4,8.3,8,0.00,,,0.00,WUHU216HW,2013-06-20 23:21:00,
2013-06-20 16:26:00,94.1,29.3,29.90,WNW,293,7.8,8.7,8,0.00,,,0.00,WUHU216HW,2013-06-20 23:26:00,
2013-06-20 16:31:00,94.0,29.2,29.90,SW,225,4.0,10.7,9,0.00,,,0.00,WUHU216HW,2013-06-20 23:31:00,
2013-06-20 16:36:00,93.6,28.9,29.90,WSW,248,8.3,10.7,8,0.00,,,0.00,WUHU216HW,2013-06-20 23:36:00,
2013-06-20 16:41:00,93.4,28.8,29.90,NW,315,7.6,10.1,8,0.00,,,0.00,WUHU216HW,2013-06-20 23:41:00,
2013-06-20 16:46:00,93.6,28.9,29.90,West,270,6.3,9.8,10,0.00,,,0.00,WUHU216HW,2013-06-20 23:46:00,
2013-06-20 16:51:00,93.6,28.9,29.90,West,270,11.2,11.2,8,0.00,,,0.00,WUHU216HW,2013-06-20 23:51:00,
2013-06-20 16:56:00,93.8,29.1,29.90,SW,225,6.9,11.2,8,0.00,,,0.00,WUHU216HW,2013-06-20 23:56:00,
2013-06-20 17:01:00,94.0,29.2,29.90,West,270,7.6,11.2,8,0.00,,,0.00,WUHU216HW,2013-06-21 00:01:00,
2013-06-20 17:06:00,94.1,29.3,29.91,WNW,293,8.1,10.3,8,0.00,,,0.00,WUHU216HW,2013-06-21 00:06:00,
2013-06-20 17:11:00,94.9,29.9,29.91,SW,225,6.5,10.5,8,0.00,,,0.00,WUHU216HW,2013-06-21 00:11:00,
2013-06-20 17:16:00,96.7,31.2,29.90,SW,225,8.3,10.5,8,0.00,,,0.00,WUHU216HW,2013-06-21 00:16:00,
2013-06-20 17:21:00,98.1,32.3,29.90,West,270,6.5,9.8,7,0.00,,,0.00,WUHU216HW,2013-06-21 00:21:00,
2013-06-20 17:26:00,99.0,33.0,29.90,West,270,6.7,9.8,7,0.00,,,0.00,WUHU216HW,2013-06-21 00:26:00,
2013-06-20 17:31:00,99.0,33.0,29.90,NW,315,9.2,9.2,7,0.00,,,0.00,WUHU216HW,2013-06-21 00:31:00,
2013-06-20 17:36:00,98.3,32.5,29.90,NNW,338,6.7,9.2,7,0.00,,,0.00,WUHU216HW,2013-06-21 00:36:00,
2013-06-20 17:41:00,98.3,32.5,29.91,SSW,203,4.3,11.6,8,0.00,,,0.00,WUHU216HW,2013-06-21 00:41:00,
2013-06-20 17:46:00,98.1,32.3,29.91,WNW,293,4.7,11.6,8,0.00,,,0.00,WUHU216HW,2013-06-21 00:46:00,
2013-06-20 17:51:00,99.0,33.0,29.91,SW,225,4.3,10.5,7,0.00,,,0.00,WUHU216HW,2013-06-21 00:51:00,
2013-06-20 17:56:00,99.5,33.5,29.91,NNW,338,7.6,8.5,7,0.00,,,0.00,WUHU216HW,2013-06-21 00:56:00,
2013-06-20 18:01:00,99.0,33.0,29.91,WSW,248,6.3,8.5,7,0.00,,,0.00,WUHU216HW,2013-06-21 01:01:00,
2013-06-20 18:06:00,98.5,32.6,29.91,South,180,7.2,10.1,7,0.00,,,0.00,WUHU216HW,2013-06-21 01:06:00,
2013-06-20 18:11:00,97.9,32.2,29.91,WSW,248,10.3,10.3,7,0.00,,,0.00,WUHU216HW,2013-06-21 01:11:00,
2013-06-20 18:16:00,97.9,32.2,29.91,WSW,248,6.0,10.3,7,0.00,,,0.00,WUHU216HW,2013-06-21 01:16:00,
2013-06-20 18:21:00,96.5,31.1,29.91,WSW,248,3.1,10.5,8,0.00,,,0.00,WUHU216HW,2013-06-21 01:21:00,
2013-06-20 18:26:00,94.5,29.6,29.91,WNW,293,7.8,10.5,9,0.00,,,0.00,WUHU216HW,2013-06-21 01:26:00,
2013-06-20 18:32:00,93.6,28.9,29.91,WSW,248,4.0,9.2,10,0.00,,,0.00,WUHU216HW,2013-06-21 01:32:00,
2013-06-20 18:37:00,94.1,29.3,29.91,WSW,248,2.2,11.4,10,0.00,,,0.00,WUHU216HW,2013-06-21 01:37:00,
2013-06-20 18:42:00,95.0,30.1,29.92,SW,225,7.6,11.4,10,0.00,,,0.00,WUHU216HW,2013-06-21 01:42:00,
2013-06-20 18:47:00,95.4,30.3,29.91,WNW,293,5.1,7.8,10,0.00,,,0.00,WUHU216HW,2013-06-21 01:47:00,
2013-06-20 18:52:00,95.2,30.2,29.92,SSE,158,4.0,7.6,10,0.00,,,0.00,WUHU216HW,2013-06-21 01:52:00,
2013-06-20 18:58:00,93.4,30.5,29.91,WNW,293,5.6,7.8,11,0.00,,,0.00,WUHU216HW,2013-06-21 01:58:00,
2013-06-20 19:03:00,90.7,30.2,29.91,SW,225,4.0,7.8,12,0.00,,,0.00,WUHU216HW,2013-06-21 02:03:00,
2013-06-20 19:08:00,89.1,30.8,29.92,WSW,248,6.0,8.7,13,0.00,,,0.00,WUHU216HW,2013-06-21 02:08:00,
2013-06-20 19:13:00,88.2,30.2,29.92,WSW,248,3.4,8.7,13,0.00,,,0.00,WUHU216HW,2013-06-21 02:13:00,
2013-06-20 19:18:00,87.5,29.5,29.92,NW,315,3.4,5.8,13,0.00,,,0.00,WUHU216HW,2013-06-21 02:18:00,
2013-06-20 19:22:00,87.1,32.7,29.92,SW,225,4.7,7.2,15,0.00,,,0.00,WUHU216HW,2013-06-21 02:22:00,
2013-06-20 19:27:00,86.6,33.9,29.92,West,270,4.0,7.2,16,0.00,,,0.00,WUHU216HW,2013-06-21 02:27:00,
2013-06-20 19:33:00,86.0,33.5,29.92,West,270,2.9,5.4,16,0.00,,,0.00,WUHU216HW,2013-06-21 02:33:00,
2013-06-20 19:38:00,85.7,34.9,29.92,West,270,3.4,4.9,17,0.00,,,0.00,WUHU216HW,2013-06-21 02:38:00,
2013-06-20 19:43:00,85.3,34.7,29.92,WNW,293,2.2,6.7,17,0.00,,,0.00,WUHU216HW,2013-06-21 02:43:00,
2013-06-20 19:47:00,85.0,34.3,29.92,West,270,2.7,6.7,17,0.00,,,0.00,WUHU216HW,2013-06-21 02:47:00,
2013-06-20 19:53:00,84.6,35.7,29.92,West,270,2.7,4.7,18,0.00,,,0.00,WUHU216HW,2013-06-21 02:53:00,
2013-06-20 19:58:00,84.2,35.5,29.92,WNW,293,2.5,4.7,18,0.00,,,0.00,WUHU216HW,2013-06-21 02:58:00,
2013-06-20 20:03:00,84.1,35.3,29.93,NW,315,4.9,6.7,18,0.00,,,0.00,WUHU216HW,2013-06-21 03:03:00,
2013-06-20 20:08:00,83.9,35.2,29.93,WSW,248,5.4,8.5,18,0.00,,,0.00,WUHU216HW,2013-06-21 03:08:00,
2013-06-20 20:13:00,83.9,35.2,29.93,WSW,248,2.5,8.5,18,0.00,,,0.00,WUHU216HW,2013-06-21 03:13:00,
2013-06-20 20:18:00,83.7,35.0,29.94,WSW,248,2.7,6.0,18,0.00,,,0.00,WUHU216HW,2013-06-21 03:18:00,
2013-06-20 20:23:00,83.3,34.7,29.94,West,270,1.8,6.0,18,0.00,,,0.00,WUHU216HW,2013-06-21 03:23:00,
2013-06-20 20:28:00,83.2,34.7,29.94,SW,225,2.2,4.7,18,0.00,,,0.00,WUHU216HW,2013-06-21 03:28:00,
2013-06-20 20:33:00,82.8,34.4,29.94,WSW,248,4.3,4.7,18,0.00,,,0.00,WUHU216HW,2013-06-21 03:33:00,
2013-06-20 20:38:00,82.6,34.2,29.94,SW,225,1.8,4.3,18,0.00,,,0.00,WUHU216HW,2013-06-21 03:38:00,
2013-06-20 20:43:00,82.4,34.0,29.94,WSW,248,4.0,4.7,18,0.00,,,0.00,WUHU216HW,2013-06-21 03:43:00,
2013-06-20 20:48:00,82.3,33.9,29.94,WSW,248,1.1,6.0,18,0.00,,,0.00,WUHU216HW,2013-06-21 03:48:00,
2013-06-20 20:53:00,82.1,33.8,29.94,WSW,248,1.6,6.0,18,0.00,,,0.00,WUHU216HW,2013-06-21 03:53:00,
2013-06-20 20:58:00,81.7,33.5,29.94,West,270,2.2,5.4,18,0.00,,,0.00,WUHU216HW,2013-06-21 03:58:00,
2013-06-20 21:01:00,81.5,35.0,29.95,WSW,248,2.2,5.4,19,0.00,,,0.00,WUHU216HW,2013-06-21 04:01:00,
2013-06-20 21:06:00,81.2,34.7,29.95,WSW,248,2.5,4.0,19,0.00,,,0.00,WUHU216HW,2013-06-21 04:06:00,
2013-06-20 21:11:00,81.0,34.6,29.95,SSW,203,1.8,3.8,19,0.00,,,0.00,WUHU216HW,2013-06-21 04:11:00,
2013-06-20 21:16:00,80.8,34.5,29.95,WSW,248,1.3,4.5,19,0.00,,,0.00,WUHU216HW,2013-06-21 04:16:00,
2013-06-20 21:21:00,80.6,34.3,29.96,WSW,248,2.5,4.5,19,0.00,,,0.00,WUHU216HW,2013-06-21 04:21:00,
2013-06-20 21:26:00,80.5,34.1,29.96,WSW,248,2.0,4.3,19,0.00,,,0.00,WUHU216HW,2013-06-21 04:26:00,
2013-06-20 21:31:00,80.3,34.0,29.96,SW,225,2.5,3.4,19,0.00,,,0.00,WUHU216HW,2013-06-21 04:31:00,
2013-06-20 21:36:00,80.3,34.0,29.96,WSW,248,2.9,3.6,19,0.00,,,0.00,WUHU216HW,2013-06-21 04:36:00,
2013-06-20 21:41:00,79.9,36.4,29.96,SSE,158,2.2,5.1,21,0.00,,,0.00,WUHU216HW,2013-06-21 04:41:00,
2013-06-20 21:46:00,79.9,36.4,29.96,WSW,248,6.3,6.3,21,0.00,,,0.00,WUHU216HW,2013-06-21 04:46:00,
2013-06-20 21:51:00,79.9,36.4,29.96,WSW,248,3.4,6.3,21,0.00,,,0.00,WUHU216HW,2013-06-21 04:51:00,
2013-06-20 21:56:00,79.9,36.4,29.96,SSW,203,2.0,6.3,21,0.00,,,0.00,WUHU216HW,2013-06-21 04:56:00,
2013-06-20 22:01:00,79.7,36.3,29.96,SW,225,1.6,4.7,21,0.00,,,0.00,WUHU216HW,2013-06-21 05:01:00,
2013-06-20 22:06:00,79.6,36.1,29.96,WSW,248,2.0,3.4,21,0.00,,,0.00,WUHU216HW,2013-06-21 05:06:00,
2013-06-20 22:11:00,79.2,35.7,29.96,WSW,248,1.6,3.4,21,0.00,,,0.00,WUHU216HW,2013-06-21 05:11:00,
2013-06-20 22:16:00,78.8,35.5,29.96,WSW,248,2.5,3.4,21,0.00,,,0.00,WUHU216HW,2013-06-21 05:16:00,
2013-06-20 22:21:00,78.8,35.5,29.96,WSW,248,1.8,3.4,21,0.00,,,0.00,WUHU216HW,2013-06-21 05:21:00,
2013-06-20 22:26:00,78.5,36.2,29.96,WSW,248,1.1,2.9,22,0.00,,,0.00,WUHU216HW,2013-06-21 05:26:00,
2013-06-20 22:31:00,78.3,36.0,29.96,SW,225,1.8,3.8,22,0.00,,,0.00,WUHU216HW,2013-06-21 05:31:00,
2013-06-20 22:36:00,78.1,35.9,29.96,South,180,1.6,3.8,22,0.00,,,0.00,WUHU216HW,2013-06-21 05:36:00,
2013-06-20 22:41:00,78.1,35.9,29.96,West,270,2.7,3.4,22,0.00,,,0.00,WUHU216HW,2013-06-21 05:41:00,
2013-06-20 22:46:00,78.1,36.9,29.96,West,270,1.6,3.8,23,0.00,,,0.00,WUHU216HW,2013-06-21 05:46:00,
2013-06-20 22:51:00,78.1,36.9,29.97,WSW,248,1.1,4.0,23,0.00,,,0.00,WUHU216HW,2013-06-21 05:51:00,
2013-06-20 22:56:00,77.9,36.8,29.97,WNW,293,1.8,4.0,23,0.00,,,0.00,WUHU216HW,2013-06-21 05:56:00,
2013-06-20 23:01:00,77.8,36.6,29.97,West,270,0.9,3.6,23,0.00,,,0.00,WUHU216HW,2013-06-21 06:01:00,
2013-06-20 23:06:00,77.8,36.6,29.96,WSW,248,1.1,3.4,23,0.00,,,0.00,WUHU216HW,2013-06-21 06:06:00,
2013-06-20 23:11:00,77.4,36.4,29.96,WSW,248,2.2,3.4,23,0.00,,,0.00,WUHU216HW,2013-06-21 06:11:00,
2013-06-20 23:16:00,77.4,36.4,29.96,WNW,293,3.1,3.1,23,0.00,,,0.00,WUHU216HW,2013-06-21 06:16:00,
2013-06-20 23:21:00,77.4,36.4,29.96,WSW,248,1.6,3.1,23,0.00,,,0.00,WUHU216HW,2013-06-21 06:21:00,
2013-06-20 23:26:00,77.2,37.3,29.96,NW,315,2.0,2.9,24,0.00,,,0.00,WUHU216HW,2013-06-21 06:26:00,
2013-06-20 23:31:00,77.2,36.2,29.97,WNW,293,1.1,3.6,23,0.00,,,0.00,WUHU216HW,2013-06-21 06:31:00,
2013-06-20 23:36:00,77.0,37.1,29.97,NW,315,1.8,3.6,24,0.00,,,0.00,WUHU216HW,2013-06-21 06:36:00,
2013-06-20 23:41:00,76.9,37.0,29.97,NNW,338,1.1,4.0,24,0.00,,,0.00,WUHU216HW,2013-06-21 06:41:00,
2013-06-20 23:46:00,76.9,37.0,29.97,SSW,203,2.2,4.0,24,0.00,,,0.00,WUHU216HW,2013-06-21 06:46:00,
2013-06-20 23:51:00,76.9,38.0,29.97,NW,315,2.9,4.7,25,0.00,,,0.00,WUHU216HW,2013-06-21 06:51:00,
2013-06-20 23:57:00,76.9,38.0,29.97,West,270,2.0,4.7,25,0.00,,,0.00,WUHU216HW,2013-06-21 06:57:00,